{"data":{"norad_id":62192,"intl_designator":"2024-229A","name":"STARLINK-32686","alt_names":[],"object_type":"PAYLOAD","status":"ACTIVE","operator":null,"country":"US","launch_date":"2024-12-04","launch_site_code":"AFETR","launch_vehicle":null,"mission":null,"orbit_class":"UNKNOWN","rcs_meters":null,"size_class":null,"mass_kg":null,"dimensions":null,"purposes":["comms"],"wikipedia_slug":null,"has_3d_model":false,"image_url":null,"decayed_at":null,"tle_current":{"epoch":"2026-05-25T04:39:06.689088Z","epoch_age_seconds":65283,"freshness":"FRESH","line1":"1 62192U 24229A   26145.19382742  .00012579  00000+0  46577-3 0  9998","line2":"2 62192  43.0008 195.0413 0001469 267.7247  92.3437 15.27585618 82304","mean_motion":15.27585618,"eccentricity":0.0001469,"inclination_deg":43.0008,"raan_deg":195.0413,"arg_perigee_deg":267.7247,"mean_anomaly_deg":92.3437,"bstar":0.00046577,"rev_number":8230,"period_min":94.26640202893,"perigee_km":482.02436801183,"apogee_km":484.04017954446,"semimajor_km":6861.1692737781,"source":"CELESTRAK","updated_at":"2026-05-25T13:38:19.605396Z"}}}